STARLINK-32375

Last updated on Mon Oct 14 2024 00:02:03 GMT+0000 (Coordinated Universal Time)

1 61070U 24164W 24287.54012048 -.00002634 00000+0 -39301-4 0 9994 2 61070 53.1584 318.6356 0001297 58.6212 301.4924 15.49317507 4949
UTC large
Height (km)
Speed (km/s)
/
Latitude / Longitude
Inclination (degrees)
Orbital Period (minutes)
Azimuth
Elevation
Range (km)
Doppler Factor

Next 0 passes for location: London (51.5072 / 0.1276)

Sorry there are no passes over London.